F16-a Sea,

8:35 AM CEST on August 21, 2017 (GMT +0200)
F16-a Sea

Weather History for EHFZ - December, 2013

Change the Weather History Date:

Monday, December 16, 2013

  Actual Average Record
Temperature  
Mean Temperature 50 °F -  
Max Temperature 52 °F - - ()
Min Temperature 48 °F - - ()
Degree Days  
Heating Degree Days 15    
Moisture  
Dew Point 47 °F    
Average Humidity 88    
Maximum Humidity 100    
Minimum Humidity 68    
Precipitation  
Precipitation 0.00 in - - ()
Sea Level Pressure  
Sea Level Pressure 29.96 in    
Wind  
Wind Speed 35 mph ()    
Max Wind Speed 48 mph    
Max Gust Speed -    
Visibility 11.7 miles    
Events Rain    
T = Trace of Precipitation, MM = Missing Value Source: Averaged Metar Reports

Daily Weather History Graph

Daily Weather History Graph

Search for Another Location

Airport or City:

Trip Planner

Search our weather history database for the weather conditions in past years. The results will help you decide how hot, cold, wet, or windy it might be!

Date:

Astronomy

Dec. 16, 2013 Rise Set
Actual Time 8:58 AM CET 4:20 PM CET
Civil Twilight 8:14 AM CET 5:04 PM CET
Nautical Twilight 7:27 AM CET 5:51 PM CET
Astronomical Twilight 6:44 AM CET 6:34 PM CET
Moon 4:08 PM CET (12/16) 7:43 AM CET (12/16)
Length of Visible Light 8h 50m
Length of Day
7h 22m
Waxing Gibbous, 99% of the Moon is Illuminated
Dec 16
Waxing Gibbous
Dec 17
Full
Dec 25
Last Quarter
Jan 1
New
Jan 8
First Quarter

Hourly Weather History & Observations

Time (CET) Temp. Dew Point Humidity Pressure Visibility Wind Dir Wind Speed Gust Speed Precip Events Conditions
12:25 AM 51.8 °F 50.0 °F 94% 29.95 in - SSW 46.0 mph - N/A   Overcast
12:55 AM 51.8 °F 50.0 °F 94% 29.95 in - SSW 47.2 mph - N/A   Overcast
1:00 AM 51 °F 49 °F 92% 29.97 in 5 mi SSW 38.0 mph - -   Mist
1:25 AM 51.8 °F 50.0 °F 94% 29.95 in - SSW 43.7 mph - N/A   Overcast
1:55 AM 51.8 °F 50.0 °F 94% 29.92 in - SSW 47.2 mph - N/A   Overcast
2:25 AM 51.8 °F 50.0 °F 94% 29.95 in - Variable 44.9 mph - N/A   Overcast
2:55 AM 51.8 °F 50.0 °F 94% 29.92 in - SSW 47.2 mph - N/A   Overcast
3:25 AM 51.8 °F 50.0 °F 94% 29.92 in - SSW 48.3 mph - N/A   Overcast
3:55 AM 51.8 °F 50.0 °F 94% 29.92 in - SSW 47.2 mph - N/A   Overcast
4:25 AM 50.0 °F 50.0 °F 100% 29.89 in - SSW 47.2 mph - N/A   Overcast
4:55 AM 50.0 °F 50.0 °F 100% 29.89 in - SSW 47.2 mph - N/A   Overcast
5:25 AM 51.8 °F 50.0 °F 94% 29.89 in - SSW 47.2 mph - N/A   Overcast
5:55 AM 51.8 °F 50.0 °F 94% 29.89 in - SSW 48.3 mph - N/A   Overcast
6:25 AM 51.8 °F 50.0 °F 94% 29.89 in - SSW 46.0 mph - N/A   Mostly Cloudy
6:55 AM 51.8 °F 50.0 °F 94% 29.89 in - SSW 43.7 mph - N/A   Overcast
7:00 AM 52 °F 50 °F 90% 29.92 in 5 mi SSW 38.0 mph - -   Mist
7:25 AM 51.8 °F 50.0 °F 94% 29.89 in - SSW 48.3 mph - N/A   Mostly Cloudy
7:55 AM 51.8 °F 50.0 °F 94% 29.89 in - SSW 47.2 mph - N/A   Unknown
8:25 AM 51.8 °F 50.0 °F 94% 29.89 in - SSW 44.9 mph - N/A   Overcast
8:55 AM 51.8 °F 50.0 °F 94% 29.89 in - SSW 44.9 mph - N/A   Overcast
9:25 AM 51.8 °F 50.0 °F 94% 29.89 in - Variable 46.0 mph - N/A   Overcast
9:55 AM 51.8 °F 50.0 °F 94% 29.89 in - SSW 47.2 mph - N/A   Overcast
10:25 AM 51.8 °F 50.0 °F 94% 29.89 in - SSW 47.2 mph - N/A   Overcast
10:55 AM 51.8 °F 50.0 °F 94% 29.92 in - Variable 46.0 mph - N/A   Overcast
11:25 AM 51.8 °F 50.0 °F 94% 29.92 in - Variable 46.0 mph - N/A   Mostly Cloudy
11:55 AM 51.8 °F 48.2 °F 88% 29.89 in - Variable 47.2 mph - N/A   Partly Cloudy
12:25 PM 51.8 °F 48.2 °F 88% 29.89 in - Variable 48.3 mph - N/A   Partly Cloudy
12:55 PM 51.8 °F 48.2 °F 88% 29.89 in - Variable 47.2 mph - N/A   Partly Cloudy
1:00 PM 51 °F 48 °F 86% 29.92 in 6 mi SSW 40.3 mph - -   Mist
1:25 PM 51.8 °F 48.2 °F 88% 29.92 in - Variable 48.3 mph - N/A   Partly Cloudy
1:55 PM 51.8 °F 48.2 °F 88% 29.92 in - Variable 47.2 mph - N/A   Scattered Clouds
2:25 PM 51.8 °F 48.2 °F 88% 29.89 in - Variable 44.9 mph - N/A   Mostly Cloudy
2:55 PM 51.8 °F 48.2 °F 88% 29.89 in - SSW 44.9 mph - N/A   Scattered Clouds
3:25 PM 50.0 °F 48.2 °F 94% 29.92 in - Variable 42.6 mph - N/A   Scattered Clouds
3:55 PM 50.0 °F 48.2 °F 94% 29.92 in - South 41.4 mph - N/A   Mostly Cloudy
4:25 PM 50.0 °F 48.2 °F 94% 29.92 in - Variable 40.3 mph - N/A   Mostly Cloudy
4:55 PM 50.0 °F 50.0 °F 100% 29.95 in - SW 32.2 mph - N/A   Mostly Cloudy
5:00 PM 51 °F 49 °F 91% 29.97 in 6 mi SW 29.1 mph - - Rain Rain
5:25 PM 50.0 °F 46.4 °F 87% 29.98 in - West 15.0 mph - N/A   Mostly Cloudy
5:55 PM 48.2 °F 44.6 °F 87% 30.01 in - WNW 17.3 mph - N/A   Mostly Cloudy
6:00 PM 48 °F 45 °F 84% 30.01 in 9 mi WNW 11.2 mph - - Rain Light Rain Showers
6:25 PM 48.2 °F 42.8 °F 82% 30.01 in - WNW 12.7 mph - N/A   Mostly Cloudy
6:55 PM 48.2 °F 41.0 °F 76% 30.04 in - West 12.7 mph - N/A   Mostly Cloudy
7:00 PM 48 °F 41 °F 68% 30.04 in 17 mi West 8.9 mph - - Rain Rain
7:25 PM 48.2 °F 41.0 °F 76% 30.04 in - West 10.4 mph - N/A   Partly Cloudy
7:55 PM 48.2 °F 42.8 °F 82% 30.06 in - West 10.4 mph - N/A   Unknown
8:00 PM 48 °F 42 °F 73% 30.06 in 19 mi West 8.9 mph - -   Overcast
8:25 PM 48.2 °F 42.8 °F 82% 30.06 in - WSW 9.2 mph - N/A   Partly Cloudy
8:55 PM 48.2 °F 42.8 °F 82% 30.06 in - WSW 10.4 mph - N/A   Unknown
9:00 PM 48 °F 43 °F 77% 30.08 in 18 mi WSW 8.9 mph - -   Overcast
9:25 PM 48.2 °F 42.8 °F 82% 30.06 in - WSW 10.4 mph - N/A   Unknown
9:55 PM 48.2 °F 42.8 °F 82% 30.06 in - SW 10.4 mph - N/A   Unknown
10:00 PM 48 °F 42 °F 75% 30.08 in 17 mi WSW 8.9 mph - -   Overcast
10:25 PM 48.2 °F 42.8 °F 82% 30.06 in - SW 11.5 mph - N/A   Unknown
10:55 PM 48.2 °F 42.8 °F 82% 30.06 in - WSW 11.5 mph - N/A   Partly Cloudy
11:00 PM 48 °F 43 °F 77% 30.09 in 15 mi SW 8.9 mph - -   Overcast
11:25 PM 48.2 °F 42.8 °F 82% 30.06 in - SW 11.5 mph - N/A   Mostly Cloudy
11:55 PM 48.2 °F 42.8 °F 82% 30.09 in - WSW 11.5 mph - N/A   Mostly Cloudy